Starlink 3048

operational
NORAD ID: 49148 Int'l Des: 2021-082 Owner: SPXS Country: US Constellation: starlink
LEOCIRCULAR

关于 Starlink 3048

正在加载描述...

实时位置

正在加载3D地球...

即将过境

高度历史

Altitude vs Time

uPlot chart will show altitude changes over time

两行轨道根数

1 49148U 21082U 25303.94623832 .00000407 00000-0 42753-4 0 9995
2 49148 69.9996 241.9417 0002788 271.6215 88.4625 14.97528000227025
Epoch: Oct 30, 2025 • Age: 6 hours

当前状态

高度 592.0 km
速度 7.56 km/s
星下点 -50.64°S, 102.21°E
发射日期 Sep 14, 2021
运行时间 4.1 years
类型 internet

技术详情

分类 Payload
质量 297.00 kg
干质量 275.00 kg
总质量 297.00 kg
长度 0.20 m
直径 2.80 m
跨度 9.00 m
形状 Box + pan
制造商 SPXS
平台类型 Starlink
阶段状态 In Orbit
所有者/国家 SPXS/US

大型星座

Loading constellations...